Regional Weather Roundup
Issued by NWS Jackson, KY

Home | Current Version | Previous Version | Graphics & Text | Print | Product List | Glossary On
Versions: 1 2 3 4 5 6 7 8 9 10 11 12 13 14 15 16 17 18 19 20 21 22 23 24 25 26 27 28 29 30 31 32 33 34 35 36 37 38 39 40 41 42 43 44 45 46 47 48 49 50
000
ASUS43 KJKL 011005
RWRJKL

EAST KENTUCKY HOURLY WEATHER ROUNDUP
NATIONAL WEATHER SERVICE JACKSON KY
600 AM EDT MON SEP 01 2014

NOTE: "FAIR" INDICATES FEW OR NO CLOUDS BELOW 12,000 FEET WITH
NO SIGNIFICANT WEATHER AND/OR OBSTRUCTIONS TO VISIBILITY.

* THESE REPORTS ARE NOT UNDER NWS QUALITY CONTROL AND MAY NOT
  REPORT WEATHER SUCH AS PRECIPITATION AND FOG.

KYZ079-080-083-085-087-088-110-112-115-119-120-011100
...EASTERN KENTUCKY...

CITY           SKY/WX    TMP DP  RH WIND       PRES   REMARKS
JACKSON        CLOUDY    71  69  93 CALM      30.10S
LONDON         CLOUDY    72  67  84 SW5       30.11S
SOMERSET*      CLOUDY    70  70 100 CALM      30.10S
MONTICELLO*    MOCLDY    69  69 100 CALM      30.11S
WILLIAMSBURG*  MOCLDY    72  70  94 CALM      30.12
MIDDLESBORO*   CLOUDY    67  67 100 CALM      30.13S
HARLAN APT*    CLOUDY    68  68 100 MISG      30.14S VSB<1/4
BLACK MTN*       N/A    N/A N/A N/A SW5         N/A
PIKEVILLE APT* CLOUDY    72  68  88 SW6       30.11S
BIG SANDY*     CLOUDY    73  70  91 SW5       30.10R
MOREHEAD APT*  CLOUDY    72  72 100 SW10      30.08S
$$

KYZ035-036-041-042-044-050-067-078-099-011100
...CENTRAL KENTUCKY...

CITY           SKY/WX    TMP DP  RH WIND       PRES   REMARKS
MT STERLING*   CLOUDY    72  72 100 SW7       30.08S
FLEMING/MASON* CLOUDY    72  71  96 SW8       30.05S
DANVILLE*      CLOUDY    72  70  94 SW7       30.08S
RICHMOND*      CLOUDY    72  70  94 SW8       30.08S
LEXINGTON      CLOUDY    75  71  87 SW7       30.06S
FRANKFORT      CLOUDY    74  72  93 SW9       30.03S
$$

KYZ091>093-OHZ055-061-077-WVZ005-015-034-035-042-011100
...SOUTHERN OHIO/WEST VIRGINIA...

CITY           SKY/WX    TMP DP  RH WIND       PRES   REMARKS
COVINGTON      CLOUDY    74  71  91 S7        30.01S
COLUMBUS       CLOUDY    73  68  84 S3        30.00S
DAYTON         CLOUDY    71  69  93 S7        30.01R FOG
WILMINGTON     CLOUDY    72  70  93 SW9       30.02R
HUNTINGTON     CLOUDY    71  70  96 S7        30.05R
CHARLESTON     CLOUDY    72  71  97 SW3       30.06S
BECKLEY        CLOUDY    70  63  78 SW6       30.16S
BLUEFIELD      CLOUDY    71  62  73 SW8       30.19S
$$

VAZ002-007-008-TNZ017-027-036-066-071-011100
...SOUTHWEST VIRGINIA/EAST TENNESSEE...

CITY           SKY/WX    TMP DP  RH WIND       PRES   REMARKS
WISE*          MOCLDY    68  68 100 SW9       30.20S
JONESVILLE*    FOG       66  66 100 CALM      30.16S VSB 1/4
ABINGDON*      LGT RAIN  71  70  99 W3        30.18S
BRISTOL        CLOUDY    70  68  93 CALM      30.15S FOG
KNOXVILLE      CLOUDY    71  69  93 SE5       30.12R
OAK RIDGE      MOCLDY    71  69  93 CALM      30.14R
CROSSVILLE     CLOUDY    68  66  93 CALM      30.16S
NASHVILLE      PTCLDY    74  72  93 S7        30.07S
$$

...KEY TO REMARKS...
VSB - VISIBILITY IN MILES
WCI - WIND CHILL INDEX
HX  - HEAT INDEX

$$



USA.gov is the U.S. government's official web portal to all federal, state and local government web resources and services.